{"data":{"norad_id":47833,"intl_designator":"2021-018AY","name":"STARLINK-2423","alt_names":[],"object_type":"PAYLOAD","status":"ACTIVE","operator":null,"country":"US","launch_date":"2021-03-11","launch_site_code":"AFETR","launch_vehicle":null,"mission":null,"orbit_class":"UNKNOWN","rcs_meters":null,"size_class":null,"mass_kg":null,"dimensions":null,"purposes":["comms"],"wikipedia_slug":null,"has_3d_model":false,"image_url":null,"decayed_at":null,"tle_current":{"epoch":"2026-05-25T00:55:36.901056Z","epoch_age_seconds":71819,"freshness":"FRESH","line1":"1 47833U 21018AY  26145.03862154  .00000521  00000+0  28571-4 0  9998","line2":"2 47833  53.1576 261.2104 0001532  77.3066 282.8106 15.31705307288276","mean_motion":15.31705307,"eccentricity":0.0001532,"inclination_deg":53.1576,"raan_deg":261.2104,"arg_perigee_deg":77.3066,"mean_anomaly_deg":282.8106,"bstar":2.8571e-5,"rev_number":28827,"period_min":94.012862227421,"perigee_km":469.67492984841,"apogee_km":471.77342091255,"semimajor_km":6848.8611753805,"source":"CELESTRAK","updated_at":"2026-05-25T13:38:16.606455Z"}}}